Voltar ao catálogo

THORAD AGENA D DEB

AtivoLEO
NORAD 4636·DEBRIS·🇺🇸 United States

Lançado Apr 8, 1970 de Vandenberg Space Force Base

Loading…

Próximas Passagens (próximas 24 horas)

TLE

AtualizadoSource: Space-Track

Época: Sep 14, 2026, 22:50 UTC

1 04636U 70025U   26257.95145222  .00000255  00000-0  34145-3 0  9997
2 04636 100.0736 260.3687 0032015 257.3234 131.3381 13.70541865807440

Acompanhe THORAD AGENA D DEB em tempo real com AllMySat

Download on the App Store